Overview Statistics Trail Chart Weather Telemetry Raw packets
 

This is the latest recevied weather packets stored in our database for station/object SV9TNF-52. If no packets are shown the sender has not sent any weather packets the latest 10 day(s).

<< 18 19 20 21 22 23 24 >>
Time Temp. Humidity Pressure Rain* Wind** Luminosity Snow
1788536086 28.89° C 48% 1020 hPa 0 mm 3.13 m/s, 76° - -
1788535786 28.89° C 50% 1020 hPa 0 mm 4.92 m/s, 86° - -
1788535486 28.89° C 47% 1020 hPa 0 mm 8.05 m/s, 110° - -
1788535186 29.44° C 49% 1020 hPa 0 mm 5.81 m/s, 74° - -
1788534885 29.44° C 47% 1020 hPa 0 mm 5.81 m/s, 62° - -
1788534585 29.44° C 51% 1020 hPa 0 mm 7.15 m/s, 15° - -
1788534285 29.44° C 53% 1020 hPa 0 mm 6.26 m/s, 0° - -
1788533986 29.44° C 54% 1020 hPa 0 mm 8.94 m/s, 15° - -
1788533685 29.44° C 51% 1020 hPa 0 mm 4.92 m/s, 30° - -
1788533385 29.44° C 55% 1020 hPa 0 mm 5.81 m/s, 42° - -
1788533085 28.33° C 53% 1020 hPa 0 mm 11.18 m/s, 14° - -
1788532785 29.44° C 55% 1020 hPa 0 mm 8.05 m/s, 9° - -
1788532485 29.44° C 56% 1020 hPa 0 mm 11.62 m/s, 3° - -
1788532185 29.44° C 57% 1020 hPa 0 mm 14.31 m/s, 324° - -
1788531885 29.44° C 56% 1020 hPa 0 mm 11.18 m/s, 31° - -
1788531584 29.44° C 55% 1020 hPa 0 mm 6.26 m/s, 13° - -
1788531284 29.44° C 56% 1020 hPa 0 mm 10.73 m/s, 15° - -
1788530985 29.44° C 56% 1019.6 hPa 0 mm 3.13 m/s, 349° - -
1788530684 29.44° C 56% 1019.6 hPa 0 mm 7.15 m/s, 136° - -
1788530385 29.44° C 55% 1019.6 hPa 0 mm 8.49 m/s, 31° - -
1788530084 29.44° C 58% 1019.6 hPa 0 mm 8.05 m/s, 53° - -
1788529784 29.44° C 56% 1019.6 hPa 0 mm 7.15 m/s, 114° - -
1788529484 28.89° C 57% 1019.6 hPa 0 mm 11.62 m/s, 15° - -
1788529184 29.44° C 56% 1019.6 hPa 0 mm 8.05 m/s, 4° - -
1788528884 29.44° C 56% 1019.6 hPa 0 mm 8.94 m/s, 3° - -

* Rain latest hour (hover to see other rain measurements)
** Current wind speed in m/s (hover to see current wind gust speed)